Wind_Speed
41 41 41 41 40 40 41 42 43 43 43 41 41 42 42 42 43 42 41 41 41 41 40 40 40 40 41 41 42 42 42 42 44 45 47 49 50 51 52 53 54 55 55 56
42 42 42 42 41 41 42 42 43 44 43 41 42 42 42 42 42 41 40 40 40 40 40 40 41 40 40 41 41 41 42 42 44 45 46 48 50 51 52 52 54 55 55 55
43 43 44 43 41 41 42 42 44 45 43 42 42 42 42 41 40 40 40 40 40 40 40 40 41 41 40 40 41 41 41 43 44 45 46 48 49 50 51 51 52 54 54 54
45 45 45 44 42 42 42 42 42 42 42 42 42 41 40 40 40 39 39 40 40 40 40 40 40 40 40 40 41 41 41 42 43 44 45 46 47 48 49 49 51 53 53 54
44 45 45 43 42 42 42 41 40 40 40 40 40 39 39 39 39 39 39 39 39 39 40 40 39 40 40 40 41 41 41 42 42 42 43 44 46 47 47 48 49 51 52 53
44 45 45 43 41 41 41 41 39 39 39 39 39 39 38 39 39 39 39 38 38 38 38 38 39 39 39 40 40 40 40 40 41 41 42 42 43 44 45 46 48 49 50 51
43 45 45 42 41 41 41 41 40 39 39 38 39 39 38 38 38 39 38 38 38 38 38 37 37 37 37 38 38 39 39 39 39 40 41 41 42 42 43 44 45 46 48 48
43 43 43 42 41 41 41 41 40 39 39 40 39 39 39 38 39 39 39 39 38 38 37 37 36 36 36 36 36 36 37 38 38 38 40 40 41 42 43 44 44 44 45 46
42 42 42 41 41 41 41 40 40 39 39 40 39 38 38 38 38 38 38 38 38 37 37 36 36 35 35 35 35 34 35 36 36 37 38 40 41 41 42 43 43 43 44 45
42 42 41 42 42 41 41 41 40 40 39 39 38 37 38 38 38 38 37 37 37 37 37 36 36 36 35 35 35 35 34 34 35 35 36 38 38 39 40 41 42 42 43 43
42 41 42 41 41 40 40 40 40 39 39 38 38 38 38 38 38 38 37 37 37 36 36 36 36 36 36 35 35 35 35 35 34 35 35 36 37 37 39 40 41 41 41 42
41 40 40 39 39 39 39 38 38 39 39 39 39 39 39 39 39 38 38 36 36 35 35 35 35 35 35 35 35 35 35 35 35 35 35 35 36 36 37 38 38 39 39 40
40 39 39 38 38 38 38 38 39 39 39 39 39 39 39 39 39 38 37 36 35 35 34 34 34 34 34 34 34 34 34 34 34 34 34 34 34 35 35 35 36 37 37 37
38 38 37 37 38 38 38 38 38 38 39 39 39 39 39 38 38 37 36 35 35 34 33 33 32 32 33 32 32 32 32 32 32 32 32 32 33 33 33 34 34 35 35 35
37 37 37 37 37 37 37 38 38 38 38 38 38 38 38 38 37 36 35 35 34 34 33 33 32 32 31 31 31 30 30 30 30 31 31 31 31 31 32 32 32 33 33 34
36 36 36 36 36 36 37 37 38 38 38 37 37 38 37 36 35 35 35 34 34 33 33 32 31 31 30 30 30 29 29 29 30 30 30 30 30 31 31 31 31 31 32 32
36 35 36 36 36 36 36 37 37 38 37 37 36 36 35 34 34 33 33 33 33 32 31 30 30 29 29 28 28 28 29 29 29 29 30 30 30 30 31 31 31 30 30 30
35 35 35 35 35 35 36 36 36 37 36 36 35 34 33 33 32 32 32 31 30 30 29 29 28 28 27 27 28 28 28 28 28 29 29 29 29 29 29 29 29 29 29 29
34 34 35 35 35 35 36 36 36 35 35 34 34 33 32 31 31 31 30 30 29 29 28 28 27 27 27 27 27 27 27 27 28 28 28 28 28 28 28 28 28 29 29 30
33 33 34 34 34 35 35 34 34 34 34 33 32 31 30 30 30 29 29 28 28 28 28 27 27 27 27 27 27 27 27 27 27 27 27 28 28 28 28 29 29 29 29 30
32 32 33 33 33 34 34 34 33 33 32 31 30 30 29 28 28 27 27 27 27 27 27 27 27 27 27 28 28 27 27 27 27 28 28 28 29 29 29 29 29 29 29 30
32 32 32 33 33 33 33 32 31 31 31 30 29 28 27 27 27 26 26 27 27 27 27 27 27 27 27 27 27 27 28 28 28 29 29 29 29 29 29 29 29 29 30 30
32 32 33 33 33 33 32 31 30 30 29 29 28 27 27 26 26 26 26 26 26 26 26 26 27 27 27 27 27 27 27 28 28 28 28 29 29 29 29 29 29 29 29 29
32 32 33 32 32 31 30 29 29 29 28 28 27 27 27 27 27 27 27 27 27 27 27 27 27 27 27 27 27 27 28 28 28 28 28 29 29 29 29 29 29 29 28 28
30 31 31 30 29 29 28 28 28 28 28 27 27 27 26 26 27 26 26 26 26 26 26 27 27 27 27 27 27 27 28 28 28 28 28 27 27 27 27 28 28 28 27 27
29 29 29 28 28 28 28 28 27 27 27 26 26 26 26 26 26 26 26 26 25 26 26 26 26 26 26 26 26 27 27 27 26 26 26 26 26 26 26 26 25 25 25 25
28 27 27 27 27 27 27 27 26 26 26 26 25 25 25 25 25 25 25 25 25 25 26 26 26 26 25 25 26 26 25 25 25 25 25 24 24 24 23 23 23 22 22 22
Wind_Direction
295 295 295 294 293 292 291 292 292 294 294 296 295 293 291 290 289 289 286 284 282 281 279 278 276 275 272 271 270 267 265 264 262 260 258 256 255 254 254 254 253 253 253 253
294 294 293 292 292 292 292 293 293 294 294 296 294 293 292 291 289 288 286 284 282 280 279 278 277 275 274 271 270 268 266 264 263 261 259 257 256 255 254 254 253 253 253 254
293 293 292 292 295 294 293 293 293 294 295 294 293 292 292 291 289 287 285 284 283 281 280 279 277 276 274 272 270 269 268 265 264 262 260 258 256 256 256 255 254 253 253 254
295 294 292 296 296 295 294 293 293 294 294 294 294 292 291 291 290 288 287 285 284 283 281 279 277 276 275 273 271 270 269 267 265 263 262 259 257 257 257 256 255 254 254 255
295 295 296 296 297 297 296 295 296 296 295 294 294 292 291 291 290 290 288 287 285 284 282 279 278 277 276 274 273 271 269 268 266 264 263 262 260 259 259 258 258 257 256 255
294 295 296 299 298 297 296 295 297 297 296 295 293 293 292 291 290 290 289 288 286 286 285 283 279 277 276 275 274 273 271 269 267 265 264 263 262 261 260 261 261 260 258 257
293 294 295 298 298 297 296 298 298 297 296 295 294 293 292 291 291 291 290 290 288 287 287 285 282 279 278 277 276 274 271 270 269 267 266 264 263 263 262 263 263 262 259 258
293 294 296 297 295 295 295 296 296 296 296 295 294 293 292 292 292 292 291 291 289 287 286 285 283 281 280 278 277 274 271 270 269 268 267 266 266 266 265 264 263 262 261 259
292 293 295 294 293 293 293 294 295 295 296 296 294 293 293 293 294 294 292 290 288 287 286 285 284 282 280 278 275 274 272 271 270 270 270 269 268 267 266 265 264 263 262 260
291 292 292 292 292 292 292 292 293 294 295 295 294 294 294 294 294 294 293 290 288 286 285 284 283 282 280 278 276 275 275 274 273 272 271 271 270 268 267 266 265 264 262 260
292 293 291 290 291 290 290 290 291 292 293 294 295 295 295 294 294 293 293 291 289 287 286 284 283 283 281 279 278 276 276 276 274 274 274 273 272 271 269 268 267 266 264 261
292 292 291 291 291 290 290 290 290 291 291 293 293 294 295 295 294 293 292 291 290 288 287 286 284 283 282 280 278 277 276 275 274 275 275 274 273 272 271 269 267 266 265 262
291 290 290 290 290 290 290 290 291 291 291 292 293 294 294 295 294 293 292 291 291 290 289 288 286 284 282 281 279 278 277 276 275 275 275 273 273 272 271 271 270 268 265 261
290 290 290 290 290 290 290 290 291 291 291 292 293 293 294 294 294 293 292 292 292 291 290 288 286 285 283 282 281 279 278 278 277 276 276 275 274 274 273 272 270 268 266 263
289 290 290 290 291 291 291 291 292 292 293 293 293 294 294 293 293 293 292 292 292 291 290 288 287 285 284 283 282 281 279 278 277 277 277 276 275 275 275 273 270 268 267 264
289 290 291 292 292 292 292 293 293 294 295 295 294 295 295 293 293 292 292 291 291 291 290 289 287 284 284 283 282 281 280 280 279 279 278 277 276 275 275 274 272 270 268 266
290 291 292 293 293 293 294 294 295 296 296 296 296 295 294 294 293 292 292 292 291 291 290 289 286 284 283 283 282 282 281 280 281 280 279 278 277 275 275 274 273 272 270 267
291 292 293 294 295 295 295 296 297 298 297 297 296 295 294 294 293 293 293 293 292 291 291 289 286 285 284 283 282 282 281 281 281 281 280 279 278 277 275 274 273 272 269 267
291 292 293 294 295 296 297 297 297 297 298 298 297 296 295 294 294 293 293 293 292 291 290 289 286 285 285 284 283 282 281 281 281 281 280 280 278 277 275 274 274 273 271 269
292 293 294 296 296 297 297 297 298 298 299 299 298 297 296 295 294 293 293 293 292 292 291 289 287 286 285 284 283 283 283 282 282 281 280 279 278 277 276 274 273 273 272 270
292 293 295 297 297 297 297 297 298 298 298 299 297 297 296 295 295 294 294 293 293 292 292 291 290 288 286 284 283 283 283 283 283 283 282 281 279 277 276 276 274 273 272 271
293 294 295 297 297 296 296 297 297 298 298 298 297 297 296 295 296 296 295 295 294 293 292 292 291 290 288 286 284 283 283 283 284 284 283 282 281 279 277 276 275 274 273 272
294 294 295 296 296 295 296 296 297 297 297 296 296 295 295 296 297 297 297 296 295 294 294 293 293 292 290 288 287 286 286 285 285 285 284 283 282 280 279 278 277 275 274 273
294 295 295 295 295 295 295 296 297 297 296 296 296 295 295 295 296 296 296 295 295 295 294 294 294 293 291 290 289 289 288 287 286 286 286 285 283 282 281 280 278 276 274 272
296 296 295 295 295 295 296 297 297 297 296 296 295 295 295 296 296 296 295 295 295 295 294 294 294 294 293 291 291 290 290 288 287 287 286 286 285 283 282 282 280 277 275 272
298 297 296 296 296 296 298 299 298 297 297 296 296 296 296 296 297 296 296 296 296 296 295 296 296 295 294 293 292 292 291 290 289 288 288 287 286 285 284 283 281 279 277 274
299 298 297 297 298 298 299 300 299 298 298 297 297 297 296 297 297 297 297 297 298 298 298 298 297 296 295 294 294 293 292 291 291 290 290 289 288 286 284 283 281 280 278 276
Height
5575 5572 5568 5565 5563 5559 5555 5552 5548 5546 5543 5542 5537 5533 5529 5526 5524 5521 5519 5517 5515 5513 5512 5510 5510 5509 5508 5508 5508 5508 5508 5508 5509 5510 5512 5514 5516 5518 5521 5523 5526 5530 5533 5536
5565 5562 5557 5554 5552 5549 5545 5542 5538 5534 5532 5531 5525 5521 5518 5515 5512 5510 5508 5505 5503 5501 5500 5499 5498 5497 5496 5496 5495 5495 5495 5496 5496 5497 5498 5500 5502 5504 5506 5508 5511 5514 5517 5520
5553 5551 5545 5543 5544 5539 5535 5532 5527 5523 5522 5518 5514 5510 5507 5504 5501 5498 5496 5494 5492 5490 5488 5487 5486 5485 5484 5484 5483 5483 5483 5483 5483 5483 5484 5486 5487 5489 5491 5493 5495 5498 5501 5503
5540 5538 5533 5537 5532 5528 5523 5520 5516 5512 5509 5506 5502 5499 5496 5493 5490 5487 5485 5482 5480 5478 5477 5475 5474 5473 5472 5471 5470 5470 5470 5470 5470 5470 5471 5472 5473 5474 5476 5478 5480 5482 5485 5488
5528 5524 5521 5524 5521 5516 5511 5509 5506 5501 5498 5494 5491 5488 5486 5482 5479 5476 5473 5471 5469 5467 5465 5464 5462 5461 5460 5459 5458 5457 5457 5457 5457 5457 5457 5458 5459 5460 5462 5463 5465 5467 5469 5472
5518 5513 5510 5513 5510 5504 5500 5497 5496 5491 5487 5483 5480 5477 5477 5472 5468 5465 5463 5460 5458 5456 5453 5452 5450 5449 5448 5447 5445 5445 5444 5444 5444 5444 5445 5445 5446 5447 5448 5449 5450 5451 5454 5456
5507 5501 5500 5501 5497 5493 5490 5488 5484 5480 5476 5473 5469 5467 5464 5461 5458 5455 5452 5449 5447 5445 5443 5440 5438 5437 5436 5434 5433 5432 5432 5432 5431 5431 5432 5432 5433 5434 5435 5436 5436 5438 5440 5442
5497 5492 5492 5489 5485 5482 5479 5475 5472 5468 5465 5462 5459 5455 5453 5450 5447 5444 5441 5438 5436 5433 5432 5429 5427 5425 5424 5423 5422 5421 5420 5420 5419 5419 5419 5419 5420 5421 5421 5422 5423 5424 5425 5427
5487 5485 5481 5477 5473 5470 5467 5464 5461 5458 5455 5451 5448 5445 5442 5439 5436 5433 5430 5427 5425 5422 5420 5418 5416 5414 5413 5412 5411 5410 5409 5408 5408 5407 5407 5407 5407 5408 5408 5408 5409 5410 5411 5413
5475 5473 5470 5465 5462 5459 5456 5453 5450 5447 5444 5441 5438 5435 5432 5429 5426 5423 5419 5416 5414 5411 5409 5407 5405 5403 5402 5401 5400 5399 5398 5397 5396 5396 5395 5395 5395 5395 5395 5395 5396 5396 5397 5399
5463 5461 5457 5454 5451 5448 5445 5442 5439 5436 5433 5430 5427 5424 5421 5418 5415 5412 5409 5405 5403 5400 5398 5396 5394 5392 5391 5390 5389 5388 5387 5386 5385 5384 5384 5383 5383 5382 5382 5382 5382 5383 5384 5385
5453 5450 5446 5444 5440 5437 5434 5431 5429 5426 5423 5420 5417 5413 5410 5407 5404 5401 5398 5395 5392 5389 5387 5385 5383 5381 5380 5378 5377 5376 5375 5374 5374 5373 5372 5372 5371 5371 5369 5370 5370 5370 5370 5371
5441 5438 5435 5432 5430 5427 5424 5421 5418 5415 5412 5409 5406 5402 5399 5396 5393 5389 5386 5384 5381 5379 5376 5374 5372 5370 5369 5367 5366 5365 5364 5363 5362 5361 5361 5360 5360 5359 5359 5358 5357 5357 5358 5359
5430 5428 5425 5422 5419 5416 5413 5410 5407 5404 5401 5398 5395 5391 5388 5385 5382 5379 5376 5373 5371 5368 5365 5363 5361 5359 5358 5356 5355 5354 5352 5351 5351 5350 5349 5349 5348 5348 5347 5347 5347 5346 5346 5347
5420 5417 5415 5412 5409 5406 5403 5400 5397 5393 5390 5387 5384 5380 5377 5374 5371 5368 5365 5363 5360 5357 5355 5353 5351 5349 5347 5346 5344 5343 5342 5341 5340 5339 5338 5338 5337 5337 5336 5336 5336 5336 5336 5336
5410 5407 5404 5401 5398 5395 5392 5389 5386 5383 5380 5376 5373 5369 5366 5363 5360 5357 5355 5352 5350 5347 5345 5342 5340 5339 5337 5336 5334 5333 5332 5331 5330 5329 5328 5327 5327 5326 5326 5325 5325 5325 5325 5325
5399 5397 5394 5391 5388 5385 5383 5379 5376 5372 5369 5365 5362 5358 5355 5352 5350 5347 5344 5342 5339 5337 5334 5332 5331 5329 5327 5326 5325 5323 5322 5321 5320 5319 5318 5317 5316 5316 5315 5315 5315 5315 5315 5315
5389 5387 5384 5381 5378 5376 5373 5369 5366 5362 5358 5355 5351 5348 5345 5342 5340 5337 5335 5332 5330 5327 5325 5323 5321 5319 5318 5316 5315 5314 5313 5312 5311 5309 5308 5307 5306 5305 5305 5305 5304 5304 5305 5305
5379 5377 5374 5371 5368 5365 5362 5359 5356 5352 5348 5345 5342 5338 5335 5333 5330 5328 5325 5323 5321 5319 5316 5314 5312 5310 5309 5307 5306 5305 5304 5302 5301 5300 5299 5298 5297 5296 5295 5295 5295 5295 5295 5295
5370 5367 5364 5362 5359 5356 5353 5349 5346 5342 5339 5336 5332 5329 5326 5324 5321 5319 5317 5314 5312 5310 5308 5306 5304 5302 5300 5299 5297 5296 5294 5293 5292 5291 5289 5288 5287 5286 5285 5285 5285 5285 5285 5285
5360 5358 5355 5352 5349 5346 5343 5340 5337 5333 5330 5327 5324 5321 5318 5315 5313 5311 5308 5306 5304 5301 5299 5297 5295 5293 5291 5290 5288 5287 5285 5284 5283 5281 5280 5279 5278 5276 5276 5275 5275 5274 5274 5274
5351 5348 5346 5343 5340 5337 5334 5331 5328 5325 5321 5318 5315 5313 5310 5307 5305 5303 5300 5298 5295 5293 5291 5289 5287 5285 5283 5281 5279 5278 5276 5275 5273 5272 5270 5269 5268 5266 5265 5264 5264 5264 5263 5263
5341 5339 5336 5334 5331 5328 5325 5322 5319 5316 5313 5310 5307 5305 5302 5300 5297 5295 5292 5290 5287 5285 5283 5280 5278 5276 5274 5272 5270 5268 5267 5265 5263 5262 5260 5259 5257 5256 5255 5254 5253 5253 5253 5252
5332 5329 5327 5324 5321 5318 5316 5313 5310 5307 5305 5302 5299 5297 5294 5292 5289 5286 5284 5282 5279 5277 5274 5272 5270 5267 5265 5263 5261 5259 5257 5255 5254 5252 5250 5249 5247 5246 5245 5243 5243 5242 5242 5242
5323 5320 5318 5315 5313 5310 5307 5305 5302 5299 5296 5294 5291 5288 5286 5283 5281 5278 5276 5273 5271 5268 5266 5263 5261 5259 5256 5254 5252 5250 5248 5246 5244 5242 5241 5239 5237 5236 5234 5233 5232 5232 5231 5231
5315 5312 5309 5307 5304 5302 5299 5296 5293 5291 5288 5286 5283 5280 5278 5276 5273 5271 5268 5265 5263 5260 5258 5255 5252 5250 5247 5245 5243 5241 5238 5236 5234 5233 5231 5229 5228 5226 5225 5224 5223 5222 5221 5221
5307 5304 5302 5299 5296 5294 5291 5288 5285 5283 5280 5278 5275 5273 5270 5268 5266 5263 5260 5258 5255 5252 5250 5247 5244 5242 5239 5237 5234 5232 5230 5228 5226 5224 5222 5220 5219 5217 5216 5215 5214 5214 5213 5213